Location: Treviso
(45.6669°N, 12.2430°E)
Time: 13:01:18
(UTC+01:00)

ISS - Pass Details

Date: 20 February 2024
Orbit: 415 x 417 km, 51.6° (Epoch: 21 February)

Event Time Altitude Azimuth Distance (km) Brightness Sun altitude
Exits shadow 05:19:19 46° 189° (S) 571 -3.3 -19.3°
Maximum altitude 05:19:56 55° 146° (SE) 508 -3.3 -19.2°
Drops below altitude 10° 05:23:13 10° 68° (ENE) 1,497 0.1 -18.7°
Sets 05:25:21 0° 64° (ENE) 2,364 1.3 -18.3°
